This demonstration page uses our WeatherBlox Daily Observations layout. Learn more.

Left ArrowRight Arrow

Hourly Observations for April 5, 2015

Temp ( °F °C ) Dew Point ( °F °C ) Humidity (%) Winds ( mph kmh ) Pressure ( in mb ) Visibility ( mi km ) Precip ( " mm )
12:51 am 00:51 Clear 69 20.6 17 -8.3 14 14 W 9 15 29.75 1008 10 16 0.00 0.00
1:51 am 01:51 Clear 67 19.4 17 -8.3 15 15 NW 12 19 29.76 1008 10 16 0.00 0.00
2:51 am 02:51 Clear 67 19.4 16 -8.9 14 14 NW 14 22 29.75 1007 10 16 0.00 0.00
3:51 am 03:51 Clear 66 18.9 16 -8.9 14 14 N 7 11 29.75 1007 10 16 0.00 0.00
4:51 am 04:51 Clear 63 17.2 18 -7.8 17 17 WSW 7 11 29.76 1008 10 16 0.00 0.00
5:51 am 05:51 Clear 58 14.4 19 -7.2 22 22 Calm 29.78 1009 10 16 0.00 0.00
6:51 am 06:51 Sunny 56 13.3 22 -5.6 27 27 E 6 9 29.82 1010 10 16 0.00 0.00
7:51 am 07:51 Sunny 65 18.3 23 -5 20 20 Calm 29.82 1010 10 16 0.00 0.00
8:51 am 08:51 Sunny 68 20 22 -5.6 17 17 SSE 5 7 29.82 1010 10 16 0.00 0.00
9:51 am 09:51 Sunny 73 22.8 18 -7.8 12 12 Calm 29.81 1010 10 16 0.00 0.00
10:51 am 10:51 Sunny 77 25 16 -8.9 10 10 VRB 5 7 29.79 1009 10 16 0.00 0.00
11:51 am 11:51 Sunny 78 25.6 17 -8.3 10 10 SSE 12 19 29.75 1008 10 16 0.00 0.00
12:51 pm 12:51 Sunny 81 27.2 16 -8.9 9 9 N 7 11 29.72 1007 10 16 0.00 0.00
1:51 pm 13:51 Sunny 82 27.8 14 -10 8 8 NE 9 15 29.69 1005 10 16 0.00 0.00
2:51 pm 14:51 Sunny 84 28.9 14 -10 7 7 WNW 9 15 29.66 1004 10 16 0.00 0.00
3:51 pm 15:51 Sunny 83 28.3 13 -10.6 7 7 WNW 10 17 29.64 1004 10 16 0.00 0.00
4:51 pm 16:51 Sunny 83 28.3 10 -12.2 6 6 W 14 22 29.63 1004 10 16 0.00 0.00
5:51 pm 17:51 Sunny 81 27.2 13 -10.6 7 7 W 13 20 29.65 1004 10 16 0.00 0.00
6:51 pm 18:51 Clear 77 25 10 -12.2 8 8 W 16 26 29.66 1004 10 16 0.00 0.00
7:51 pm 19:51 Clear 73 22.8 19 -7.2 13 13 NW 12 19 29.67 1005 10 16 0.00 0.00
8:51 pm 20:51 Clear 68 20 16 -8.9 13 13 NNW 10 17 29.70 1006 10 16 0.00 0.00
9:51 pm 21:51 Clear 66 18.9 13 -10.6 13 13 NNW 9 15 29.71 1006 10 16 0.00 0.00
10:51 pm 22:51 Clear 61 16.1 13 -10.6 15 15 NW 6 9 29.73 1007 10 16 0.00 0.00
11:51 pm 23:51 Clear 55 12.8 13 -10.6 19 19 Calm 29.75 1007 10 16 0.00 0.00

Powered by AerisWeather